Ord, NE

11:07 PM CDT on March 25, 2017 (GMT -0500)
Sharp

Weather History for KODX - August, 2012

Change the Weather History Date:

Saturday, August 18, 2012

  Actual Average Record
Temperature  
Mean Temperature 65 °F 73 °F  
Max Temperature 81 °F 86 °F 95 °F (1998)
Min Temperature 49 °F 61 °F 48 °F (2002)
Degree Days  
Heating Degree Days 0 0  
Month to date heating degree days 9 0  
Since 1 June heating degree days 25 42  
Since 1 July heating degree days 9 5  
Cooling Degree Days 0 8  
Month to date cooling degree days 141 167  
Year to date cooling degree days 1011 667  
Since 1 June cooling degree days 924 626  
Growing Degree Days 16 (Base 50)    
Moisture  
Dew Point 50 °F    
Average Humidity 63    
Maximum Humidity 93    
Minimum Humidity 33    
Precipitation  
Precipitation 0.06 in 0.11 in 0.99 in (1949)
Month to date precipitation 0.78 1.90  
Year to date precipitation 10.91 17.65  
Sea Level Pressure  
Sea Level Pressure 29.99 in    
Wind  
Wind Speed 9 mph (North)    
Max Wind Speed 24 mph    
Max Gust Speed 30 mph    
Visibility 10 miles    
Events Rain , Thunderstorm    
T = Trace of Precipitation, MM = Missing Value Source: NWS Daily Summary

Daily Weather History Graph

Daily Weather History Graph

Search for Another Location

Airport or City:

Trip Planner

Search our weather history database for the weather conditions in past years. The results will help you decide how hot, cold, wet, or windy it might be!

Date:

Astronomy

Aug. 18, 2012 Rise Set
Actual Time 6:48 AM CDT 8:30 PM CDT
Civil Twilight 6:18 AM CDT 8:59 PM CDT
Nautical Twilight 5:42 AM CDT 9:35 PM CDT
Astronomical Twilight 5:04 AM CDT 10:13 PM CDT
Moon 7:59 AM CDT (8/18) 8:44 PM CDT (8/18)
Length of Visible Light 14h 41m
Length of Day
13h 42m
New Moon, 1% of the Moon is Illuminated
Aug 18
New Moon
Aug 24
First Quarter
Aug 31
Full
Sep 8
Last Quarter
Sep 15
New

Hourly Weather History & Observations

Time (CDT) Temp. Dew Point Humidity Pressure Visibility Wind Dir Wind Speed Gust Speed Precip Events Conditions
12:53 AM 57.9 °F 46.0 °F 65% 30.03 in 10.0 mi Calm Calm - N/A   Clear
1:53 AM 55.0 °F 46.0 °F 72% 30.02 in 10.0 mi Calm Calm - N/A   Clear
2:53 AM 53.1 °F 48.0 °F 83% 30.00 in 10.0 mi Calm Calm - N/A   Clear
3:53 AM 52.0 °F 48.0 °F 86% 29.98 in 10.0 mi Calm Calm - N/A   Clear
4:30 AM 53.6 °F 48.2 °F 82% 30.00 in 10.0 mi NE 3.5 mph - N/A Thunderstorm Mostly Cloudy
4:53 AM 53.1 °F 48.9 °F 86% 29.97 in 10.0 mi South 5.8 mph - 0.00 in Rain Light Rain
5:01 AM 53.6 °F 50.0 °F 88% 29.99 in 10.0 mi SSW 6.9 mph - 0.00 in Rain , Thunderstorm Light Rain
5:53 AM 55.9 °F 51.1 °F 84% 29.97 in 10.0 mi South 6.9 mph - 0.01 in Rain , Thunderstorm Light Thunderstorms and Rain
6:53 AM 55.4 °F 51.8 °F 88% 29.97 in 10.0 mi SE 6.9 mph - N/A   Overcast
7:53 AM 57.2 °F 53.6 °F 88% 30.00 in 10.0 mi West 5.8 mph - N/A   Overcast
8:53 AM 59.0 °F 52.0 °F 78% 30.00 in 10.0 mi WSW 6.9 mph - N/A   Mostly Cloudy
9:53 AM 66.9 °F 51.1 °F 57% 29.98 in 10.0 mi WSW 10.4 mph - N/A   Clear
10:53 AM 73.9 °F 50.0 °F 43% 29.94 in 10.0 mi SW 13.8 mph - N/A   Clear
11:53 AM 78.1 °F 50.0 °F 37% 29.93 in 10.0 mi NW 12.7 mph 18.4 mph N/A   Clear
12:53 PM 80.1 °F 48.9 °F 34% 29.92 in 10.0 mi NNW 15.0 mph - N/A   Clear
1:53 PM 79.0 °F 48.9 °F 35% 29.93 in 10.0 mi North 18.4 mph - N/A   Clear
2:53 PM 77.0 °F 53.1 °F 43% 29.94 in 10.0 mi North 18.4 mph 29.9 mph N/A   Mostly Cloudy
3:53 PM 75.9 °F 51.1 °F 42% 29.96 in 10.0 mi North 23.0 mph 29.9 mph N/A   Partly Cloudy
4:53 PM 73.9 °F 50.0 °F 43% 29.98 in 10.0 mi NNE 15.0 mph 26.5 mph N/A   Scattered Clouds
5:53 PM 73.9 °F 50.0 °F 43% 29.99 in 10.0 mi NE 12.7 mph - N/A   Clear
6:53 PM 72.0 °F 48.9 °F 44% 30.01 in 10.0 mi NNE 12.7 mph 19.6 mph N/A   Clear
7:53 PM 68.0 °F 51.1 °F 55% 30.02 in 10.0 mi NE 8.1 mph - N/A   Clear
8:53 PM 63.0 °F 51.1 °F 65% 30.05 in 10.0 mi NE 5.8 mph - N/A   Clear
9:53 PM 59.0 °F 52.0 °F 78% 30.07 in 10.0 mi ENE 5.8 mph - N/A   Clear
10:53 PM 53.1 °F 51.1 °F 93% 30.09 in 10.0 mi Calm Calm - N/A   Clear
11:53 PM 51.1 °F 48.9 °F 92% 30.08 in 10.0 mi West 4.6 mph - N/A   Clear